DAL225 TIST-KTPA

Flight info

Callsign DAL225
Flight time 2h 44m
Altitude 40000
Route PALCO7 PALCO RTE6 SJU DCT ACONY Y280 OCTAL BLFRG3
Aircraft B772/H-SDE2E3FGHIJ5LORVWXY/LB1D1

Departure

Time 2026-04-21 15:08
Airport Cyril E. King Airport (TIST)

Arrival

Time 2026-04-21 17:52
Airport Tampa International Airport (KTPA)
Time Latitude Longitude Altitude Speed Heading
2026-04-21 15:08 18.30042 -65.28036 15732 ft 383 kts 283°
2026-04-21 15:08 18.30629 -65.30784 16699 ft 386 kts 283°
2026-04-21 15:08 18.31225 -65.33558 17611 ft 392 kts 283°
2026-04-21 15:08 18.31824 -65.36377 18481 ft 397 kts 283°
2026-04-21 15:09 18.32421 -65.39231 19327 ft 400 kts 283°
2026-04-21 15:09 18.33015 -65.42095 20260 ft 401 kts 282°
2026-04-21 15:09 18.33607 -65.44969 21213 ft 402 kts 282°
2026-04-21 15:09 18.34199 -65.47852 22106 ft 404 kts 282°
2026-04-21 15:10 18.34794 -65.50758 22990 ft 408 kts 282°
2026-04-21 15:10 18.35394 -65.53686 23810 ft 411 kts 282°
2026-04-21 15:10 18.35991 -65.56599 24492 ft 413 kts 282°
2026-04-21 15:10 18.36598 -65.59566 25191 ft 416 kts 282°
2026-04-21 15:11 18.37209 -65.62549 25861 ft 418 kts 282°
2026-04-21 15:11 18.37823 -65.65555 26481 ft 422 kts 282°
2026-04-21 15:11 18.38440 -65.68585 27101 ft 425 kts 282°
2026-04-21 15:11 18.39059 -65.71634 27702 ft 427 kts 282°
2026-04-21 15:12 18.39682 -65.74700 28296 ft 430 kts 283°
2026-04-21 15:12 18.40309 -65.77788 28820 ft 433 kts 283°
2026-04-21 15:12 18.40940 -65.80901 29350 ft 436 kts 283°
2026-04-21 15:12 18.41576 -65.84035 29857 ft 439 kts 283°
2026-04-21 15:13 18.42214 -65.87186 30327 ft 441 kts 283°
2026-04-21 15:13 18.42854 -65.90351 30729 ft 443 kts 283°
2026-04-21 15:13 18.43503 -65.93525 31100 ft 443 kts 284°
2026-04-21 15:13 18.44489 -65.96607 31346 ft 447 kts 294°
2026-04-21 15:14 18.45970 -65.99490 31647 ft 450 kts 301°
2026-04-21 15:14 18.47773 -66.02196 31971 ft 452 kts 307°
2026-04-21 15:14 18.49951 -66.04600 32287 ft 455 kts 314°
2026-04-21 15:14 18.52254 -66.06884 32668 ft 455 kts 314°
2026-04-21 15:15 18.54559 -66.09151 33203 ft 450 kts 314°
2026-04-21 15:15 18.56836 -66.11399 33768 ft 446 kts 314°
2026-04-21 15:15 18.59086 -66.13639 34208 ft 444 kts 313°
2026-04-21 15:15 18.61323 -66.15883 34539 ft 444 kts 313°
2026-04-21 15:16 18.63556 -66.18136 34866 ft 444 kts 313°
2026-04-21 15:16 18.65783 -66.20389 35212 ft 443 kts 313°
2026-04-21 15:16 18.68007 -66.22641 35602 ft 442 kts 313°
2026-04-21 15:16 18.70219 -66.24882 35983 ft 441 kts 313°
2026-04-21 15:17 18.72427 -66.27120 36382 ft 439 kts 313°
2026-04-21 15:17 18.74626 -66.29349 36770 ft 438 kts 313°
2026-04-21 15:17 18.76820 -66.31573 37129 ft 437 kts 313°
2026-04-21 15:17 18.79013 -66.33797 37480 ft 437 kts 313°
2026-04-21 15:18 18.81203 -66.36019 37817 ft 436 kts 313°
2026-04-21 15:18 18.83388 -66.38237 38182 ft 435 kts 313°
2026-04-21 15:18 18.85565 -66.40447 38527 ft 434 kts 313°
2026-04-21 15:18 18.87742 -66.42658 38826 ft 434 kts 313°
2026-04-21 15:19 18.89915 -66.44867 39117 ft 433 kts 312°
2026-04-21 15:19 18.92054 -66.47046 39404 ft 432 kts 311°
2026-04-21 15:19 18.94117 -66.49396 39626 ft 430 kts 307°
2026-04-21 15:19 18.96018 -66.51785 39834 ft 430 kts 307°
2026-04-21 15:20 18.97937 -66.54209 40057 ft 430 kts 307°
2026-04-21 15:20 18.99857 -66.56634 40294 ft 430 kts 307°
2026-04-21 15:20 19.01775 -66.59054 40547 ft 429 kts 307°
2026-04-21 15:20 19.03695 -66.61472 40782 ft 429 kts 307°
2026-04-21 15:21 19.05614 -66.63886 40973 ft 429 kts 307°
2026-04-21 15:21 19.07536 -66.66303 41197 ft 429 kts 307°
2026-04-21 15:21 19.09458 -66.68718 41410 ft 429 kts 307°
2026-04-21 15:21 19.11377 -66.71130 41614 ft 429 kts 307°
2026-04-21 15:22 19.13298 -66.73546 41825 ft 429 kts 307°
2026-04-21 15:22 19.15218 -66.75961 41989 ft 429 kts 307°
2026-04-21 15:22 19.19074 -66.80816 42089 ft 432 kts 307°
2026-04-21 15:23 19.22931 -66.85674 42088 ft 429 kts 307°
2026-04-21 15:23 19.26758 -66.90497 42112 ft 426 kts 307°
2026-04-21 15:24 19.30565 -66.95301 42084 ft 425 kts 307°
2026-04-21 15:24 19.34360 -67.00094 42103 ft 425 kts 307°
2026-04-21 15:25 19.38135 -67.04866 42104 ft 425 kts 307°
2026-04-21 15:25 19.41937 -67.09675 42091 ft 426 kts 307°
2026-04-21 15:26 19.45744 -67.14495 42102 ft 427 kts 307°
2026-04-21 15:26 19.49556 -67.19323 42107 ft 427 kts 307°
2026-04-21 15:27 19.53374 -67.24165 42089 ft 428 kts 307°
2026-04-21 15:27 19.57190 -67.29007 42101 ft 428 kts 307°
2026-04-21 15:28 19.61013 -67.33861 42104 ft 429 kts 307°
2026-04-21 15:28 19.64832 -67.38715 42127 ft 429 kts 307°
2026-04-21 15:29 19.68654 -67.43577 42108 ft 429 kts 307°
2026-04-21 15:29 19.72473 -67.48439 42098 ft 428 kts 307°
2026-04-21 15:30 19.76286 -67.53296 42100 ft 428 kts 307°
2026-04-21 15:30 19.80095 -67.58153 42097 ft 428 kts 306°
2026-04-21 15:31 19.83898 -67.63008 42103 ft 428 kts 306°
2026-04-21 15:31 19.87697 -67.67860 42100 ft 427 kts 306°
2026-04-21 15:32 19.91500 -67.72721 42095 ft 427 kts 306°
2026-04-21 15:32 19.95295 -67.77577 42098 ft 427 kts 306°
2026-04-21 15:33 19.99091 -67.82438 42095 ft 427 kts 306°
2026-04-21 15:33 20.02862 -67.87269 42094 ft 427 kts 306°
2026-04-21 15:34 20.06654 -67.92134 42107 ft 427 kts 306°
2026-04-21 15:34 20.10445 -67.97000 42097 ft 427 kts 306°
2026-04-21 15:35 20.14236 -68.01871 42104 ft 427 kts 306°
2026-04-21 15:35 20.18028 -68.06746 42097 ft 427 kts 306°
2026-04-21 15:36 20.21816 -68.11621 42101 ft 428 kts 306°
2026-04-21 15:36 20.25607 -68.16504 42098 ft 428 kts 306°
2026-04-21 15:37 20.29395 -68.21388 42101 ft 428 kts 306°
2026-04-21 15:37 20.33182 -68.26274 42098 ft 427 kts 306°
2026-04-21 15:38 20.36967 -68.31162 42103 ft 427 kts 306°
2026-04-21 15:38 20.40749 -68.36051 42112 ft 428 kts 306°
2026-04-21 15:39 20.44432 -68.41015 42110 ft 425 kts 301°
2026-04-21 15:39 20.47572 -68.46347 42101 ft 424 kts 299°
2026-04-21 15:40 20.50158 -68.50788 42104 ft 424 kts 299°
2026-04-21 15:40 20.53280 -68.56129 42097 ft 424 kts 299°
2026-04-21 15:41 20.56407 -68.61467 42102 ft 424 kts 299°
2026-04-21 15:41 20.59534 -68.66806 42098 ft 424 kts 299°
2026-04-21 15:42 20.62662 -68.72150 42103 ft 424 kts 299°
2026-04-21 15:42 20.65785 -68.77492 42095 ft 424 kts 299°
2026-04-21 15:43 20.68910 -68.82843 42103 ft 424 kts 299°
2026-04-21 15:43 20.72038 -68.88206 42107 ft 428 kts 299°
2026-04-21 15:44 20.75212 -68.93652 42109 ft 435 kts 299°
2026-04-21 15:44 20.78432 -68.99181 42112 ft 441 kts 299°
2026-04-21 15:45 20.81670 -69.04746 42114 ft 446 kts 299°
2026-04-21 15:45 20.84951 -69.10391 42103 ft 448 kts 299°
2026-04-21 15:46 20.88243 -69.16059 42101 ft 449 kts 299°
2026-04-21 15:46 20.91539 -69.21727 42095 ft 449 kts 299°
2026-04-21 15:47 20.94832 -69.27391 42101 ft 448 kts 299°
2026-04-21 15:47 20.98117 -69.33049 42100 ft 447 kts 299°
2026-04-21 15:48 21.01392 -69.38698 42099 ft 446 kts 299°
2026-04-21 15:48 21.04661 -69.44341 42103 ft 445 kts 299°
2026-04-21 15:49 21.07921 -69.49976 42103 ft 445 kts 299°
2026-04-21 15:49 21.11170 -69.55597 42104 ft 444 kts 299°
2026-04-21 15:50 21.14415 -69.61219 42103 ft 444 kts 299°
2026-04-21 15:50 21.17659 -69.66843 42103 ft 443 kts 299°
2026-04-21 15:51 21.20899 -69.72467 42113 ft 443 kts 299°
2026-04-21 15:51 21.24136 -69.78089 42109 ft 443 kts 299°
2026-04-21 15:52 21.27371 -69.83712 42099 ft 443 kts 299°
2026-04-21 15:52 21.30651 -69.89421 42105 ft 442 kts 299°
2026-04-21 15:53 21.33825 -69.94950 42108 ft 442 kts 299°
2026-04-21 15:53 21.37046 -70.00569 42107 ft 442 kts 299°
2026-04-21 15:54 21.40243 -70.06152 42104 ft 442 kts 299°
2026-04-21 15:54 21.43461 -70.11778 42104 ft 442 kts 299°
2026-04-21 15:55 21.46676 -70.17403 42104 ft 442 kts 299°
2026-04-21 15:55 21.49887 -70.23027 42105 ft 442 kts 299°
2026-04-21 15:56 21.53096 -70.28653 42108 ft 442 kts 299°
2026-04-21 15:56 21.56168 -70.34045 42109 ft 442 kts 299°
2026-04-21 15:57 21.59268 -70.39492 42129 ft 442 kts 299°
2026-04-21 15:57 21.62474 -70.45130 42120 ft 442 kts 299°
2026-04-21 15:58 21.65679 -70.50773 42122 ft 442 kts 299°
2026-04-21 15:58 21.68883 -70.56418 42106 ft 442 kts 299°
2026-04-21 15:59 21.72084 -70.62067 42104 ft 442 kts 299°
2026-04-21 15:59 21.75283 -70.67715 42103 ft 442 kts 299°
2026-04-21 16:00 21.78479 -70.73366 42122 ft 442 kts 299°
2026-04-21 16:00 21.81676 -70.79023 42122 ft 442 kts 299°
2026-04-21 16:01 21.84868 -70.84679 42112 ft 442 kts 299°
2026-04-21 16:01 21.88060 -70.90340 42111 ft 442 kts 299°
2026-04-21 16:02 21.91253 -70.96008 42107 ft 442 kts 299°
2026-04-21 16:02 21.94422 -71.01640 42109 ft 442 kts 299°
2026-04-21 16:03 21.97609 -71.07310 42130 ft 442 kts 299°
2026-04-21 16:03 22.00794 -71.12981 42124 ft 443 kts 298°
2026-04-21 16:04 22.03977 -71.18657 42115 ft 442 kts 298°
2026-04-21 16:04 22.07158 -71.24333 42119 ft 442 kts 298°
2026-04-21 16:05 22.10334 -71.30008 42117 ft 442 kts 298°
2026-04-21 16:05 22.13507 -71.35682 42115 ft 442 kts 298°
2026-04-21 16:06 22.16678 -71.41359 42123 ft 441 kts 298°
2026-04-21 16:06 22.19842 -71.47031 42123 ft 441 kts 298°
2026-04-21 16:07 22.23006 -71.52708 42120 ft 441 kts 298°
2026-04-21 16:07 22.26161 -71.58374 42126 ft 441 kts 298°
2026-04-21 16:08 22.30899 -71.66897 42120 ft 441 kts 298°
2026-04-21 16:09 22.34059 -71.72588 42122 ft 441 kts 298°
2026-04-21 16:09 22.37212 -71.78273 42124 ft 441 kts 298°
2026-04-21 16:10 22.40367 -71.83968 42131 ft 441 kts 298°
2026-04-21 16:10 22.43497 -71.89623 42126 ft 441 kts 298°
2026-04-21 16:11 22.46644 -71.95316 42124 ft 441 kts 298°
2026-04-21 16:11 22.49789 -72.01012 42125 ft 441 kts 298°
2026-04-21 16:12 22.52398 -72.05741 42122 ft 441 kts 298°
2026-04-21 16:12 22.56067 -72.12398 42125 ft 441 kts 298°
2026-04-21 16:13 22.59201 -72.18093 42128 ft 440 kts 298°
2026-04-21 16:13 22.62335 -72.23793 42128 ft 440 kts 298°
2026-04-21 16:14 22.65463 -72.29489 42129 ft 440 kts 298°
2026-04-21 16:14 22.68590 -72.35188 42127 ft 440 kts 298°
2026-04-21 16:15 22.71693 -72.40851 42128 ft 440 kts 298°
2026-04-21 16:15 22.74813 -72.46551 42128 ft 440 kts 298°
2026-04-21 16:16 22.77931 -72.52254 42143 ft 440 kts 298°
2026-04-21 16:16 22.81049 -72.57962 42132 ft 440 kts 298°
2026-04-21 16:17 22.84164 -72.63672 42131 ft 440 kts 298°
2026-04-21 16:17 22.87278 -72.69386 42130 ft 440 kts 298°
2026-04-21 16:18 22.90389 -72.75101 42132 ft 440 kts 298°
2026-04-21 16:18 22.93497 -72.80818 42134 ft 440 kts 298°
2026-04-21 16:19 22.96601 -72.86534 42138 ft 440 kts 298°
2026-04-21 16:19 22.99705 -72.92255 42136 ft 440 kts 298°
2026-04-21 16:20 23.02807 -72.97981 42139 ft 440 kts 298°
2026-04-21 16:20 23.05905 -73.03707 42139 ft 440 kts 297°
2026-04-21 16:21 23.09001 -73.09438 42140 ft 440 kts 297°
2026-04-21 16:21 23.12097 -73.15173 42142 ft 440 kts 297°
2026-04-21 16:22 23.14669 -73.19944 42143 ft 440 kts 297°
2026-04-21 16:22 23.18285 -73.26658 42149 ft 440 kts 297°
2026-04-21 16:23 23.21375 -73.32404 42145 ft 440 kts 297°
2026-04-21 16:23 23.24467 -73.38159 42147 ft 440 kts 297°
2026-04-21 16:24 23.27553 -73.43909 42147 ft 440 kts 297°
2026-04-21 16:24 23.30617 -73.49625 42148 ft 440 kts 297°
2026-04-21 16:25 23.33696 -73.55377 42151 ft 440 kts 297°
2026-04-21 16:25 23.36775 -73.61133 42151 ft 440 kts 297°
2026-04-21 16:26 23.39849 -73.66888 42153 ft 440 kts 297°
2026-04-21 16:26 23.42921 -73.72645 42152 ft 440 kts 297°
2026-04-21 16:27 23.45992 -73.78407 42153 ft 440 kts 297°
2026-04-21 16:27 23.49060 -73.84171 42156 ft 440 kts 297°
2026-04-21 16:28 23.51609 -73.88965 42154 ft 440 kts 297°
2026-04-21 16:28 23.54674 -73.94737 42177 ft 440 kts 297°
2026-04-21 16:29 23.57742 -74.00517 42165 ft 440 kts 297°
2026-04-21 16:29 23.60809 -74.06299 42162 ft 440 kts 297°
2026-04-21 16:30 23.63874 -74.12081 42154 ft 440 kts 297°
2026-04-21 16:30 23.66936 -74.17866 42162 ft 440 kts 297°
2026-04-21 16:31 23.69996 -74.23654 42167 ft 440 kts 297°
2026-04-21 16:31 23.73053 -74.29445 42162 ft 440 kts 297°
2026-04-21 16:32 23.76107 -74.35238 42166 ft 440 kts 297°
2026-04-21 16:32 23.79160 -74.41034 42167 ft 440 kts 297°
2026-04-21 16:33 23.82209 -74.46831 42167 ft 440 kts 297°
2026-04-21 16:33 23.85258 -74.52633 42170 ft 440 kts 297°
2026-04-21 16:34 23.88303 -74.58436 42177 ft 441 kts 297°
2026-04-21 16:34 23.91355 -74.64259 42181 ft 442 kts 297°
2026-04-21 16:35 23.94391 -74.70056 42176 ft 442 kts 297°
2026-04-21 16:35 23.97437 -74.75879 42179 ft 441 kts 297°
2026-04-21 16:36 24.00477 -74.81699 42183 ft 440 kts 297°
2026-04-21 16:36 24.03510 -74.87513 42182 ft 440 kts 297°
2026-04-21 16:37 24.06540 -74.93329 42191 ft 440 kts 297°
2026-04-21 16:37 24.09577 -74.99164 42180 ft 442 kts 297°
2026-04-21 16:38 24.12611 -75.05001 42182 ft 441 kts 297°
2026-04-21 16:38 24.15639 -75.10833 42190 ft 440 kts 297°
2026-04-21 16:39 24.18660 -75.16658 42184 ft 440 kts 297°
2026-04-21 16:39 24.21680 -75.22488 42182 ft 439 kts 297°
2026-04-21 16:40 24.24562 -75.28060 42181 ft 439 kts 297°
2026-04-21 16:40 24.27571 -75.33884 42188 ft 439 kts 297°
2026-04-21 16:41 24.30575 -75.39704 42193 ft 439 kts 296°
2026-04-21 16:41 24.33577 -75.45528 42188 ft 439 kts 297°
2026-04-21 16:42 24.36577 -75.51355 42186 ft 439 kts 296°
2026-04-21 16:42 24.39573 -75.57182 42188 ft 438 kts 296°
2026-04-21 16:43 24.42567 -75.63010 42187 ft 438 kts 296°
2026-04-21 16:43 24.45558 -75.68840 42196 ft 438 kts 296°
2026-04-21 16:44 24.48525 -75.74633 42196 ft 438 kts 296°
2026-04-21 16:44 24.51511 -75.80466 42200 ft 438 kts 296°
2026-04-21 16:45 24.54494 -75.86304 42194 ft 438 kts 296°
2026-04-21 16:45 24.57479 -75.92152 42187 ft 439 kts 296°
2026-04-21 16:46 24.60466 -75.98010 42208 ft 440 kts 296°
2026-04-21 16:46 24.63452 -76.03873 42198 ft 439 kts 296°
2026-04-21 16:47 24.66433 -76.09735 42202 ft 439 kts 296°
2026-04-21 16:47 24.69411 -76.15599 42210 ft 439 kts 296°
2026-04-21 16:48 24.72388 -76.21466 42205 ft 439 kts 296°
2026-04-21 16:48 24.75361 -76.27334 42201 ft 439 kts 296°
2026-04-21 16:49 24.78172 -76.32890 42206 ft 439 kts 296°
2026-04-21 16:49 24.81138 -76.38757 42209 ft 439 kts 296°
2026-04-21 16:50 24.84103 -76.44631 42212 ft 438 kts 296°
2026-04-21 16:50 24.87065 -76.50506 42204 ft 438 kts 296°
2026-04-21 16:51 24.90020 -76.56374 42207 ft 438 kts 296°
2026-04-21 16:51 24.92973 -76.62245 42212 ft 438 kts 296°
2026-04-21 16:52 24.95924 -76.68121 42212 ft 438 kts 296°
2026-04-21 16:52 24.98876 -76.74006 42212 ft 438 kts 296°
2026-04-21 16:53 25.01820 -76.79881 42216 ft 438 kts 296°
2026-04-21 16:53 25.04764 -76.85766 42215 ft 438 kts 296°
2026-04-21 16:54 25.07707 -76.91654 42223 ft 439 kts 296°
2026-04-21 16:54 25.10649 -76.97548 42220 ft 439 kts 296°
2026-04-21 16:55 25.13590 -77.03449 42224 ft 439 kts 296°
2026-04-21 16:55 25.16528 -77.09351 42224 ft 439 kts 296°
2026-04-21 16:56 25.19445 -77.15218 42231 ft 439 kts 296°
2026-04-21 16:56 25.22379 -77.21128 42229 ft 439 kts 296°
2026-04-21 16:57 25.25331 -77.27081 42237 ft 439 kts 296°
2026-04-21 16:57 25.28241 -77.32962 42238 ft 439 kts 295°
2026-04-21 16:58 25.30663 -77.39115 42249 ft 436 kts 288°
2026-04-21 16:58 25.32690 -77.45444 42237 ft 437 kts 288°
2026-04-21 16:59 25.34732 -77.51771 42225 ft 437 kts 288°
2026-04-21 16:59 25.36784 -77.58094 42236 ft 437 kts 288°
2026-04-21 17:00 25.38834 -77.64416 42238 ft 437 kts 288°
2026-04-21 17:00 25.40537 -77.69674 42243 ft 437 kts 288°
2026-04-21 17:01 25.42918 -77.77076 42243 ft 437 kts 287°
2026-04-21 17:01 25.44609 -77.83517 42253 ft 436 kts 284°
2026-04-21 17:02 25.46211 -77.89993 42244 ft 436 kts 284°
2026-04-21 17:02 25.47816 -77.96473 42233 ft 437 kts 284°
2026-04-21 17:03 25.49430 -78.02951 42237 ft 437 kts 284°
2026-04-21 17:03 25.51045 -78.09433 42237 ft 437 kts 284°
2026-04-21 17:04 25.52660 -78.15921 42243 ft 437 kts 284°
2026-04-21 17:04 25.54272 -78.22410 42247 ft 437 kts 284°
2026-04-21 17:05 25.55880 -78.28900 42248 ft 437 kts 284°
2026-04-21 17:05 25.57487 -78.35396 42248 ft 437 kts 284°
2026-04-21 17:06 25.59091 -78.41894 42247 ft 437 kts 284°
2026-04-21 17:06 25.60692 -78.48396 42247 ft 437 kts 284°
2026-04-21 17:07 25.62021 -78.53799 42251 ft 437 kts 284°
2026-04-21 17:07 25.63886 -78.61403 42249 ft 437 kts 284°
2026-04-21 17:08 25.65479 -78.67911 42251 ft 437 kts 284°
2026-04-21 17:08 25.67069 -78.74421 42247 ft 438 kts 284°
2026-04-21 17:09 25.69439 -78.84151 42249 ft 438 kts 284°
2026-04-21 17:09 25.71035 -78.90716 42252 ft 438 kts 284°
2026-04-21 17:10 25.72617 -78.97239 42258 ft 438 kts 283°
2026-04-21 17:10 25.73929 -79.02664 42257 ft 438 kts 283°
2026-04-21 17:11 25.75506 -79.09193 42253 ft 438 kts 283°
2026-04-21 17:11 25.77337 -79.16790 42256 ft 438 kts 283°
2026-04-21 17:12 25.78654 -79.22263 42260 ft 438 kts 283°
2026-04-21 17:12 25.80224 -79.28806 42256 ft 439 kts 283°
2026-04-21 17:13 25.81763 -79.35226 42245 ft 422 kts 283°
2026-04-21 17:13 25.83260 -79.41492 42255 ft 419 kts 283°
2026-04-21 17:14 25.84745 -79.47720 42259 ft 421 kts 283°
2026-04-21 17:14 25.86256 -79.54070 42258 ft 423 kts 283°
2026-04-21 17:15 25.87758 -79.60393 42258 ft 424 kts 283°
2026-04-21 17:15 25.89259 -79.66728 42278 ft 425 kts 283°
2026-04-21 17:16 25.90761 -79.73074 42269 ft 425 kts 283°
2026-04-21 17:16 25.92630 -79.79248 41934 ft 420 kts 291°
2026-04-21 17:17 25.93856 -79.82184 41402 ft 418 kts 294°
2026-04-21 17:17 25.95257 -79.84970 40784 ft 419 kts 298°
2026-04-21 17:17 25.96798 -79.87717 40141 ft 419 kts 298°
2026-04-21 17:17 25.98359 -79.90462 39481 ft 420 kts 298°
2026-04-21 17:18 25.99923 -79.93210 38760 ft 421 kts 298°
2026-04-21 17:18 26.01482 -79.95966 37941 ft 422 kts 298°
2026-04-21 17:18 26.03039 -79.98729 37181 ft 421 kts 298°
2026-04-21 17:18 26.04297 -80.00970 36568 ft 422 kts 298°
2026-04-21 17:19 26.05665 -80.03412 35884 ft 423 kts 298°
2026-04-21 17:19 26.07227 -80.06204 35021 ft 426 kts 299°
2026-04-21 17:19 26.08800 -80.09019 34082 ft 431 kts 299°
2026-04-21 17:19 26.10391 -80.11868 33009 ft 435 kts 300°
2026-04-21 17:20 26.11996 -80.14739 31965 ft 439 kts 300°
2026-04-21 17:20 26.13618 -80.17644 30978 ft 442 kts 301°
2026-04-21 17:20 26.15229 -80.20540 30241 ft 439 kts 301°
2026-04-21 17:20 26.16734 -80.23456 29944 ft 434 kts 299°
2026-04-21 17:21 26.18180 -80.26433 29602 ft 440 kts 298°
2026-04-21 17:21 26.19614 -80.29451 29291 ft 442 kts 298°
2026-04-21 17:21 26.21045 -80.32473 28981 ft 440 kts 298°
2026-04-21 17:21 26.22469 -80.35468 28704 ft 437 kts 298°
2026-04-21 17:22 26.23889 -80.38438 28591 ft 432 kts 298°
2026-04-21 17:22 26.25301 -80.41381 28373 ft 431 kts 298°
2026-04-21 17:22 26.26716 -80.44319 28117 ft 430 kts 298°
2026-04-21 17:22 26.28129 -80.47252 27852 ft 429 kts 298°
2026-04-21 17:23 26.29540 -80.50180 27588 ft 428 kts 298°
2026-04-21 17:23 26.30947 -80.53102 27347 ft 428 kts 298°
2026-04-21 17:23 26.32354 -80.56025 27099 ft 427 kts 298°
2026-04-21 17:23 26.33758 -80.58945 26842 ft 427 kts 298°
2026-04-21 17:24 26.35158 -80.61859 26587 ft 426 kts 298°
2026-04-21 17:24 26.36553 -80.64763 26348 ft 426 kts 298°
2026-04-21 17:24 26.37955 -80.67684 26091 ft 425 kts 298°
2026-04-21 17:24 26.39345 -80.70584 25833 ft 424 kts 298°
2026-04-21 17:25 26.40733 -80.73481 25582 ft 423 kts 298°
2026-04-21 17:25 26.42116 -80.76369 25344 ft 422 kts 298°
2026-04-21 17:25 26.43495 -80.79250 25087 ft 420 kts 298°
2026-04-21 17:25 26.44869 -80.82124 24824 ft 419 kts 297°
2026-04-21 17:26 26.46236 -80.84985 24581 ft 418 kts 297°
2026-04-21 17:26 26.47601 -80.87843 24347 ft 416 kts 297°
2026-04-21 17:26 26.48962 -80.90695 24102 ft 415 kts 297°
2026-04-21 17:26 26.50316 -80.93534 23844 ft 415 kts 297°
2026-04-21 17:27 26.51671 -80.96377 23561 ft 414 kts 297°
2026-04-21 17:27 26.53003 -80.99174 23295 ft 413 kts 297°
2026-04-21 17:27 26.54349 -81.02002 23039 ft 412 kts 297°
2026-04-21 17:27 26.55693 -81.04827 22799 ft 411 kts 297°
2026-04-21 17:28 26.57030 -81.07639 22543 ft 410 kts 297°
2026-04-21 17:28 26.58364 -81.10448 22307 ft 409 kts 297°
2026-04-21 17:28 26.59695 -81.13251 22072 ft 408 kts 297°
2026-04-21 17:28 26.60723 -81.15419 21886 ft 407 kts 297°
2026-04-21 17:29 26.62046 -81.18207 21638 ft 405 kts 297°
2026-04-21 17:29 26.63364 -81.20979 21397 ft 404 kts 298°
2026-04-21 17:29 26.64885 -81.23600 21150 ft 401 kts 306°
2026-04-21 17:29 26.66636 -81.26023 20921 ft 400 kts 308°
2026-04-21 17:30 26.68426 -81.28409 20673 ft 400 kts 309°
2026-04-21 17:30 26.70216 -81.30796 20428 ft 401 kts 309°
2026-04-21 17:30 26.71996 -81.33198 20225 ft 401 kts 308°
2026-04-21 17:30 26.73761 -81.35608 19977 ft 401 kts 308°
2026-04-21 17:31 26.75518 -81.38030 19736 ft 400 kts 308°
2026-04-21 17:31 26.77265 -81.40453 19504 ft 400 kts 308°
2026-04-21 17:31 26.79005 -81.42873 19261 ft 398 kts 308°
2026-04-21 17:31 26.80734 -81.45282 19023 ft 396 kts 308°
2026-04-21 17:32 26.81897 -81.46905 18867 ft 395 kts 308°
2026-04-21 17:32 26.84168 -81.50073 18561 ft 393 kts 308°
2026-04-21 17:32 26.85872 -81.52450 18298 ft 391 kts 308°
2026-04-21 17:32 26.87572 -81.54825 18033 ft 390 kts 308°
2026-04-21 17:33 26.89265 -81.57191 17807 ft 389 kts 308°
2026-04-21 17:33 26.90952 -81.59549 17574 ft 387 kts 308°
2026-04-21 17:33 26.92634 -81.61901 17346 ft 386 kts 308°
2026-04-21 17:33 26.94306 -81.64241 17109 ft 384 kts 308°
2026-04-21 17:34 26.95981 -81.66587 16890 ft 384 kts 308°
2026-04-21 17:34 26.97654 -81.68933 16638 ft 388 kts 308°
2026-04-21 17:34 26.99358 -81.71322 16203 ft 393 kts 308°
2026-04-21 17:34 27.01044 -81.73685 15912 ft 382 kts 308°
2026-04-21 17:35 27.02689 -81.75994 15682 ft 376 kts 308°
2026-04-21 17:35 27.04319 -81.78281 15469 ft 377 kts 308°
2026-04-21 17:35 27.05967 -81.80596 15229 ft 383 kts 309°
2026-04-21 17:35 27.07632 -81.82934 14989 ft 384 kts 309°
2026-04-21 17:36 27.09456 -81.85095 14767 ft 382 kts 320°
2026-04-21 17:36 27.11577 -81.86894 14547 ft 382 kts 324°
2026-04-21 17:36 27.13742 -81.88632 14319 ft 383 kts 324°
2026-04-21 17:36 27.15908 -81.90385 14095 ft 384 kts 324°
2026-04-21 17:37 27.18054 -81.92148 13842 ft 380 kts 324°
2026-04-21 17:37 27.20162 -81.93907 13590 ft 375 kts 323°
2026-04-21 17:37 27.21569 -81.95088 13450 ft 372 kts 323°
2026-04-21 17:37 27.24296 -81.97392 13136 ft 371 kts 323°
2026-04-21 17:38 27.26365 -81.99146 12922 ft 373 kts 324°
2026-04-21 17:38 27.28436 -82.00902 12702 ft 372 kts 324°
2026-04-21 17:38 27.30493 -82.02648 12486 ft 370 kts 323°
2026-04-21 17:38 27.32546 -82.04392 12250 ft 368 kts 323°
2026-04-21 17:39 27.34584 -82.06123 12045 ft 367 kts 324°
2026-04-21 17:39 27.36615 -82.07849 11819 ft 365 kts 323°
2026-04-21 17:39 27.38609 -82.09612 11609 ft 364 kts 321°
2026-04-21 17:39 27.40542 -82.11432 11397 ft 358 kts 321°
2026-04-21 17:40 27.42419 -82.13203 11180 ft 346 kts 321°
2026-04-21 17:40 27.44232 -82.14907 10958 ft 334 kts 320°
2026-04-21 17:40 27.45930 -82.16652 10618 ft 328 kts 317°
2026-04-21 17:40 27.47549 -82.18433 10297 ft 322 kts 316°
2026-04-21 17:41 27.49124 -82.20191 9974 ft 316 kts 316°
2026-04-21 17:41 27.50662 -82.21905 9779 ft 306 kts 317°
2026-04-21 17:41 27.52160 -82.23559 9598 ft 296 kts 317°
2026-04-21 17:41 27.53608 -82.25153 9448 ft 286 kts 317°
2026-04-21 17:42 27.55024 -82.26711 9069 ft 285 kts 317°
2026-04-21 17:42 27.56420 -82.28242 8981 ft 275 kts 317°
2026-04-21 17:42 27.57792 -82.29746 8601 ft 275 kts 317°
2026-04-21 17:42 27.59146 -82.31233 8389 ft 269 kts 318°
2026-04-21 17:43 27.60484 -82.32703 8100 ft 269 kts 317°
2026-04-21 17:43 27.61828 -82.34175 7738 ft 270 kts 317°
2026-04-21 17:43 27.63175 -82.35651 7417 ft 270 kts 318°
2026-04-21 17:43 27.64521 -82.37128 7097 ft 270 kts 318°
2026-04-21 17:44 27.65862 -82.38603 6823 ft 269 kts 319°
2026-04-21 17:44 27.67202 -82.40075 6427 ft 270 kts 320°
2026-04-21 17:44 27.68522 -82.41596 5962 ft 271 kts 311°
2026-04-21 17:44 27.69240 -82.43588 5422 ft 283 kts 277°
2026-04-21 17:45 27.69265 -82.45809 4923 ft 281 kts 265°
2026-04-21 17:45 27.68773 -82.47923 4489 ft 281 kts 239°
2026-04-21 17:45 27.67755 -82.49774 4188 ft 275 kts 235°
2026-04-21 17:45 27.66963 -82.51707 3735 ft 276 kts 258°
2026-04-21 17:46 27.67041 -82.53855 3451 ft 274 kts 289°
2026-04-21 17:46 27.67964 -82.55666 3179 ft 264 kts 319°
2026-04-21 17:46 27.69472 -82.56690 3111 ft 251 kts 350°
2026-04-21 17:46 27.71189 -82.56942 3094 ft 250 kts
2026-04-21 17:47 27.72929 -82.57081 3087 ft 251 kts
2026-04-21 17:47 27.74689 -82.57215 3088 ft 255 kts
2026-04-21 17:47 27.76455 -82.57353 3087 ft 254 kts
2026-04-21 17:47 27.78200 -82.57483 2975 ft 248 kts
2026-04-21 17:48 27.79330 -82.57564 2896 ft 241 kts
2026-04-21 17:48 27.81289 -82.56992 2727 ft 205 kts 38°
2026-04-21 17:48 27.82455 -82.56162 2655 ft 194 kts 33°
2026-04-21 17:48 27.83618 -82.55492 2608 ft 178 kts 36°
2026-04-21 17:49 27.84729 -82.54917 2272 ft 181 kts 17°
2026-04-21 17:49 27.85952 -82.54818 2062 ft 170 kts 10°
2026-04-21 17:49 27.87124 -82.54730 1784 ft 165 kts 12°
2026-04-21 17:49 27.88275 -82.54636 1583 ft 166 kts 11°
2026-04-21 17:50 27.89448 -82.54545 1383 ft 170 kts
2026-04-21 17:50 27.90614 -82.54473 1170 ft 165 kts
2026-04-21 17:50 27.91739 -82.54397 972 ft 151 kts
2026-04-21 17:50 27.92726 -82.54361 754 ft 136 kts 10°
2026-04-21 17:51 27.93655 -82.54328 579 ft 128 kts
2026-04-21 17:51 27.94574 -82.54299 405 ft 134 kts
2026-04-21 17:51 27.95501 -82.54269 252 ft 134 kts 10°
2026-04-21 17:51 27.96410 -82.54232 97 ft 127 kts
2026-04-21 17:52 27.97200 -82.54206 51 ft 96 kts
2026-04-21 17:52 27.97685 -82.54188 51 ft 21 kts
2026-04-21 17:52 27.97817 -82.54174 50 ft 19 kts 12°
2026-04-21 17:52 27.97933 -82.54116 50 ft 2 kts 30°
2026-04-21 17:53 27.97964 -82.54096 48 ft 19 kts 30°
2026-04-21 17:53 27.98019 -82.54045 49 ft 9 kts 64°
2026-04-21 17:54 27.98061 -82.53983 50 ft 10 kts 44°
2026-04-21 17:54 27.98079 -82.53910 48 ft 5 kts 90°
2026-04-21 17:54 27.98079 -82.53900 48 ft 7 kts 91°
2026-04-21 17:54 27.98079 -82.53890 48 ft 0 kts 91°